Tracking 19246 objects as of 20-Aug-2018
HD Live streaming from Space Station
objects crossing your sky now

FENGYUN 1C DEB

Track FENGYUN 1C DEB now!
10-day predictions


NORAD ID: 33601
Int'l Code: 1999-025DCJ
Perigee: 778.6 km
Apogee: 1,035.9 km
Inclination: 98.3 °
Period: 103.0 minutes
Semi major axis: 7278 km
RCS: 0.0058 m2 (small)
Launch date: May 10, 1999
Source: People's Republic of China (PRC)
Launch site: Taiyaun Space Center, China (TSC)

Note: This is SATELLITE DEBRIS
aabbcc
Your satellite tracking list
Your tracking list is empty




NASA's NSSDC Master Catalog

Two Line Element Set (TLE):
1 33601U 99025DCJ 18231.43837170  .00000606  00000-0  39501-3 0  9999
2 33601  98.2803 225.6782 0176771 129.7658  28.5675 13.98173037532784
Source of the keplerian elements: AFSPC